Year,Month,Day,Hour,Minute,Value (Times are PST for barometer in hPa)
2015,02,06,00,00,957.94
2015,02,06,00,01,957.94
2015,02,06,00,02,957.94
2015,02,06,00,03,957.94
2015,02,06,00,04,957.94
2015,02,06,00,05,957.94
2015,02,06,00,06,957.94
2015,02,06,00,07,957.94
2015,02,06,00,08,957.94
2015,02,06,00,09,957.94
2015,02,06,00,10,957.94
2015,02,06,00,11,957.94
2015,02,06,00,12,957.67
2015,02,06,00,13,957.67
2015,02,06,00,14,957.67
2015,02,06,00,15,957.67
2015,02,06,00,16,957.67
2015,02,06,00,17,957.67
2015,02,06,00,18,957.67
2015,02,06,00,19,957.67
2015,02,06,00,20,957.67
2015,02,06,00,21,957.67
2015,02,06,00,22,957.67
2015,02,06,00,23,957.67
2015,02,06,00,24,957.67
2015,02,06,00,25,957.67
2015,02,06,00,26,957.67
2015,02,06,00,27,957.64
2015,02,06,00,28,957.64
2015,02,06,00,29,957.64
2015,02,06,00,30,957.64
2015,02,06,00,31,957.64
2015,02,06,00,32,957.64
2015,02,06,00,33,957.64
2015,02,06,00,34,957.64
2015,02,06,00,35,957.64
2015,02,06,00,36,957.64
2015,02,06,00,37,957.64
2015,02,06,00,38,957.64
2015,02,06,00,39,957.64
2015,02,06,00,40,957.64
2015,02,06,00,41,957.64
2015,02,06,00,42,957.53
2015,02,06,00,43,957.53
2015,02,06,00,44,957.53
2015,02,06,00,45,957.53
2015,02,06,00,46,957.53
2015,02,06,00,47,957.53
2015,02,06,00,48,957.53
2015,02,06,00,49,957.53
2015,02,06,00,50,957.53
2015,02,06,00,51,957.53
2015,02,06,00,52,957.53
2015,02,06,00,53,957.53
2015,02,06,00,54,957.53
2015,02,06,00,55,957.53
2015,02,06,00,56,957.53
2015,02,06,00,57,957.50
2015,02,06,00,58,957.50
2015,02,06,00,59,957.50
2015,02,06,01,00,957.50
2015,02,06,01,01,957.50
2015,02,06,01,02,957.50
2015,02,06,01,03,957.50
2015,02,06,01,04,957.50
2015,02,06,01,05,957.50
2015,02,06,01,06,957.50
2015,02,06,01,07,957.50
2015,02,06,01,08,957.50
2015,02,06,01,09,957.50
2015,02,06,01,10,957.50
2015,02,06,01,11,957.50
2015,02,06,01,12,957.53
2015,02,06,01,13,957.53
2015,02,06,01,14,957.53
2015,02,06,01,15,957.53
2015,02,06,01,16,957.53
2015,02,06,01,17,957.53
2015,02,06,01,18,957.53
2015,02,06,01,19,957.53
2015,02,06,01,20,957.53
2015,02,06,01,21,957.53
2015,02,06,01,22,957.53
2015,02,06,01,23,957.53
2015,02,06,01,24,957.53
2015,02,06,01,25,957.53
2015,02,06,01,26,957.53
2015,02,06,01,27,957.87
2015,02,06,01,28,957.87
2015,02,06,01,29,957.87
2015,02,06,01,30,957.87
2015,02,06,01,31,957.87
2015,02,06,01,32,957.87
2015,02,06,01,33,957.87
2015,02,06,01,34,957.87
2015,02,06,01,35,957.87
2015,02,06,01,36,957.87
2015,02,06,01,37,957.87
2015,02,06,01,38,957.87
2015,02,06,01,39,957.87
2015,02,06,01,40,957.87
2015,02,06,01,41,957.87
2015,02,06,01,42,957.50
2015,02,06,01,43,957.50
2015,02,06,01,44,957.50
2015,02,06,01,45,957.50
2015,02,06,01,46,957.50
2015,02,06,01,47,957.50
2015,02,06,01,48,957.50
2015,02,06,01,49,957.50
2015,02,06,01,50,957.50
2015,02,06,01,51,957.50
2015,02,06,01,52,957.50
2015,02,06,01,53,957.50
2015,02,06,01,54,957.50
2015,02,06,01,55,957.50
2015,02,06,01,56,957.50
2015,02,06,01,57,957.57
2015,02,06,01,58,957.57
2015,02,06,01,59,957.57
2015,02,06,02,00,957.57
2015,02,06,02,01,957.57
2015,02,06,02,02,957.57
2015,02,06,02,03,957.57
2015,02,06,02,04,957.57
2015,02,06,02,05,957.57
2015,02,06,02,06,957.57
2015,02,06,02,07,957.57
2015,02,06,02,08,957.57
2015,02,06,02,09,957.57
2015,02,06,02,10,957.57
2015,02,06,02,11,957.57
2015,02,06,02,12,957.77
2015,02,06,02,13,957.77
2015,02,06,02,14,957.77
2015,02,06,02,15,957.77
2015,02,06,02,16,957.77
2015,02,06,02,17,957.77
2015,02,06,02,18,957.77
2015,02,06,02,19,957.77
2015,02,06,02,20,957.77
2015,02,06,02,21,957.77
2015,02,06,02,22,957.77
2015,02,06,02,23,957.77
2015,02,06,02,24,957.77
2015,02,06,02,25,957.77
2015,02,06,02,26,957.77
2015,02,06,02,27,957.74
2015,02,06,02,28,957.74
2015,02,06,02,29,957.74
2015,02,06,02,30,957.74
2015,02,06,02,31,957.74
2015,02,06,02,32,957.74
2015,02,06,02,33,957.74
2015,02,06,02,34,957.74
2015,02,06,02,35,957.74
2015,02,06,02,36,957.74
2015,02,06,02,37,957.74
2015,02,06,02,38,957.74
2015,02,06,02,39,957.74
2015,02,06,02,40,957.74
2015,02,06,02,41,957.74
2015,02,06,02,42,957.87
2015,02,06,02,43,957.87
2015,02,06,02,44,957.87
2015,02,06,02,45,957.87
2015,02,06,02,46,957.87
2015,02,06,02,47,957.87
2015,02,06,02,48,957.87
2015,02,06,02,49,957.87
2015,02,06,02,50,957.87
2015,02,06,02,51,957.87
2015,02,06,02,52,957.87
2015,02,06,02,53,957.87
2015,02,06,02,54,957.87
2015,02,06,02,55,957.87
2015,02,06,02,56,957.87
2015,02,06,02,57,957.50
2015,02,06,02,58,957.50
2015,02,06,02,59,957.50
2015,02,06,03,00,957.50
2015,02,06,03,01,957.50
2015,02,06,03,02,957.50
2015,02,06,03,03,957.50
2015,02,06,03,04,957.50
2015,02,06,03,05,957.50
2015,02,06,03,06,957.50
2015,02,06,03,07,957.50
2015,02,06,03,08,957.50
2015,02,06,03,09,957.50
2015,02,06,03,10,957.50
2015,02,06,03,11,957.50
2015,02,06,03,12,957.53
2015,02,06,03,13,957.53
2015,02,06,03,14,957.53
2015,02,06,03,15,957.53
2015,02,06,03,16,957.53
2015,02,06,03,17,957.53
2015,02,06,03,18,957.53
2015,02,06,03,19,957.53
2015,02,06,03,20,957.53
2015,02,06,03,21,957.53
2015,02,06,03,22,957.53
2015,02,06,03,23,957.53
2015,02,06,03,24,957.53
2015,02,06,03,25,957.53
2015,02,06,03,26,957.53
2015,02,06,03,27,957.37
2015,02,06,03,28,957.37
2015,02,06,03,29,957.37
2015,02,06,03,30,957.37
2015,02,06,03,31,957.37
2015,02,06,03,32,957.37
2015,02,06,03,33,957.37
2015,02,06,03,34,957.37
2015,02,06,03,35,957.37
2015,02,06,03,36,957.37
2015,02,06,03,37,957.37
2015,02,06,03,38,957.37
2015,02,06,03,39,957.37
2015,02,06,03,40,957.37
2015,02,06,03,41,957.37
2015,02,06,03,42,957.06
2015,02,06,03,43,957.06
2015,02,06,03,44,957.06
2015,02,06,03,45,957.06
2015,02,06,03,46,957.06
2015,02,06,03,47,957.06
2015,02,06,03,48,957.06
2015,02,06,03,49,957.06
2015,02,06,03,50,957.06
2015,02,06,03,51,957.06
2015,02,06,03,52,957.06
2015,02,06,03,53,957.06
2015,02,06,03,54,957.06
2015,02,06,03,55,957.06
2015,02,06,03,56,957.06
2015,02,06,03,57,956.99
2015,02,06,03,58,956.99
2015,02,06,03,59,956.99
2015,02,06,04,00,956.99
2015,02,06,04,01,956.99
2015,02,06,04,02,956.99
2015,02,06,04,03,956.99
2015,02,06,04,04,956.99
2015,02,06,04,05,956.99
2015,02,06,04,06,956.99
2015,02,06,04,07,956.99
2015,02,06,04,08,956.99
2015,02,06,04,09,956.99
2015,02,06,04,10,956.99
2015,02,06,04,11,956.99
2015,02,06,04,12,956.59
2015,02,06,04,13,956.59
2015,02,06,04,14,956.59
2015,02,06,04,15,956.59
2015,02,06,04,16,956.59
2015,02,06,04,17,956.59
2015,02,06,04,18,956.59
2015,02,06,04,19,956.59
2015,02,06,04,20,956.59
2015,02,06,04,21,956.59
2015,02,06,04,22,956.59
2015,02,06,04,23,956.59
2015,02,06,04,24,956.59
2015,02,06,04,25,956.59
2015,02,06,04,26,956.59
2015,02,06,04,27,956.42
2015,02,06,04,28,956.42
2015,02,06,04,29,956.42
2015,02,06,04,30,956.42
2015,02,06,04,31,956.42
2015,02,06,04,32,956.42
2015,02,06,04,33,956.42
2015,02,06,04,34,956.42
2015,02,06,04,35,956.42
2015,02,06,04,36,956.42
2015,02,06,04,37,956.42
2015,02,06,04,38,956.42
2015,02,06,04,39,956.42
2015,02,06,04,40,956.42
2015,02,06,04,41,956.42
2015,02,06,04,42,956.25
2015,02,06,04,43,956.25
2015,02,06,04,44,956.25
2015,02,06,04,45,956.25
2015,02,06,04,46,956.25
2015,02,06,04,47,956.25
2015,02,06,04,48,956.25
2015,02,06,04,49,956.25
2015,02,06,04,50,956.25
2015,02,06,04,51,956.25
2015,02,06,04,52,956.25
2015,02,06,04,53,956.25
2015,02,06,04,54,956.25
2015,02,06,04,55,956.25
2015,02,06,04,56,956.25
2015,02,06,04,57,956.42
2015,02,06,04,58,956.42
2015,02,06,04,59,956.42
2015,02,06,05,00,956.42
2015,02,06,05,01,956.42
2015,02,06,05,02,956.42
2015,02,06,05,03,956.42
2015,02,06,05,04,956.42
2015,02,06,05,05,956.42
2015,02,06,05,06,956.42
2015,02,06,05,07,956.42
2015,02,06,05,08,956.42
2015,02,06,05,09,956.42
2015,02,06,05,10,956.42
2015,02,06,05,11,956.42
2015,02,06,05,12,955.98
2015,02,06,05,13,955.98
2015,02,06,05,14,955.98
2015,02,06,05,15,955.98
2015,02,06,05,16,955.98
2015,02,06,05,17,955.98
2015,02,06,05,18,955.98
2015,02,06,05,19,955.98
2015,02,06,05,20,955.98
2015,02,06,05,21,955.98
2015,02,06,05,22,955.98
2015,02,06,05,23,955.98
2015,02,06,05,24,955.98
2015,02,06,05,25,955.98
2015,02,06,05,26,955.98
2015,02,06,05,27,956.15
2015,02,06,05,28,956.15
2015,02,06,05,29,956.15
2015,02,06,05,30,956.15
2015,02,06,05,31,956.15
2015,02,06,05,32,956.15
2015,02,06,05,33,956.15
2015,02,06,05,34,956.15
2015,02,06,05,35,956.15
2015,02,06,05,36,956.15
2015,02,06,05,37,956.15
2015,02,06,05,38,956.15
2015,02,06,05,39,956.15
2015,02,06,05,40,956.15
2015,02,06,05,41,956.15
2015,02,06,05,42,955.64
2015,02,06,05,43,955.64
2015,02,06,05,44,955.64
2015,02,06,05,45,955.64
2015,02,06,05,46,955.64
2015,02,06,05,47,955.64
2015,02,06,05,48,955.64
2015,02,06,05,49,955.64
2015,02,06,05,50,955.64
2015,02,06,05,51,955.64
2015,02,06,05,52,955.64
2015,02,06,05,53,955.64
2015,02,06,05,54,955.64
2015,02,06,05,55,955.64
2015,02,06,05,56,955.64
2015,02,06,05,57,955.40
2015,02,06,05,58,955.40
2015,02,06,05,59,955.40
2015,02,06,06,00,955.40
2015,02,06,06,01,955.40
2015,02,06,06,02,955.40
2015,02,06,06,03,955.40
2015,02,06,06,04,955.40
2015,02,06,06,05,955.40
2015,02,06,06,06,955.40
2015,02,06,06,07,955.40
2015,02,06,06,08,955.40
2015,02,06,06,09,955.40
2015,02,06,06,10,955.40
2015,02,06,06,11,955.40
2015,02,06,06,12,954.96
2015,02,06,06,13,954.96
2015,02,06,06,14,954.96
2015,02,06,06,15,954.96
2015,02,06,06,16,954.96
2015,02,06,06,17,954.96
2015,02,06,06,18,954.96
2015,02,06,06,19,954.96
2015,02,06,06,20,954.96
2015,02,06,06,21,954.96
2015,02,06,06,22,954.96
2015,02,06,06,23,954.96
2015,02,06,06,24,954.96
2015,02,06,06,25,954.96
2015,02,06,06,26,954.96
2015,02,06,06,27,954.86
2015,02,06,06,28,954.86
2015,02,06,06,29,954.86
2015,02,06,06,30,954.86
2015,02,06,06,31,954.86
2015,02,06,06,32,954.86
2015,02,06,06,33,954.86
2015,02,06,06,34,954.86
2015,02,06,06,35,954.86
2015,02,06,06,36,954.86
2015,02,06,06,37,954.86
2015,02,06,06,38,954.86
2015,02,06,06,39,954.86
2015,02,06,06,40,954.86
2015,02,06,06,41,954.86
2015,02,06,06,42,954.93
2015,02,06,06,43,954.93
2015,02,06,06,44,954.93
2015,02,06,06,45,954.93
2015,02,06,06,46,954.93
2015,02,06,06,47,954.93
2015,02,06,06,48,954.93
2015,02,06,06,49,954.93
2015,02,06,06,50,954.93
2015,02,06,06,51,954.93
2015,02,06,06,52,954.93
2015,02,06,06,53,954.93
2015,02,06,06,54,954.93
2015,02,06,06,55,954.93
2015,02,06,06,56,954.93
2015,02,06,06,57,954.59
2015,02,06,06,58,954.59
2015,02,06,06,59,954.59
2015,02,06,07,00,954.59
2015,02,06,07,01,954.59
2015,02,06,07,02,954.59
2015,02,06,07,03,954.59
2015,02,06,07,04,954.59
2015,02,06,07,05,954.59
2015,02,06,07,06,954.59
2015,02,06,07,07,954.59
2015,02,06,07,08,954.59
2015,02,06,07,09,954.59
2015,02,06,07,10,954.59
2015,02,06,07,11,954.59
2015,02,06,07,12,954.59
2015,02,06,07,13,954.59
2015,02,06,07,14,954.59
2015,02,06,07,15,954.59
2015,02,06,07,16,954.59
2015,02,06,07,17,954.59
2015,02,06,07,18,954.59
2015,02,06,07,19,954.59
2015,02,06,07,20,954.59
2015,02,06,07,21,954.59
2015,02,06,07,22,954.59
2015,02,06,07,23,954.59
2015,02,06,07,24,954.59
2015,02,06,07,25,954.59
2015,02,06,07,26,954.59
2015,02,06,07,27,954.39
2015,02,06,07,28,954.39
2015,02,06,07,29,954.39
2015,02,06,07,30,954.39
2015,02,06,07,31,954.39
2015,02,06,07,32,954.39
2015,02,06,07,33,954.39
2015,02,06,07,34,954.39
2015,02,06,07,35,954.39
2015,02,06,07,36,954.39
2015,02,06,07,37,954.39
2015,02,06,07,38,954.39
2015,02,06,07,39,954.39
2015,02,06,07,40,954.39
2015,02,06,07,41,954.39
2015,02,06,07,42,954.62
2015,02,06,07,43,954.62
2015,02,06,07,44,954.62
2015,02,06,07,45,954.62
2015,02,06,07,46,954.62
2015,02,06,07,47,954.62
2015,02,06,07,48,954.62
2015,02,06,07,49,954.62
2015,02,06,07,50,954.62
2015,02,06,07,51,954.62
2015,02,06,07,52,954.62
2015,02,06,07,53,954.62
2015,02,06,07,54,954.62
2015,02,06,07,55,954.62
2015,02,06,07,56,954.62
2015,02,06,07,57,954.86
2015,02,06,07,58,954.86
2015,02,06,07,59,954.86
2015,02,06,08,00,954.86
2015,02,06,08,01,954.86
2015,02,06,08,02,954.86
2015,02,06,08,03,954.86
2015,02,06,08,04,954.86
2015,02,06,08,05,954.86
2015,02,06,08,06,954.86
2015,02,06,08,07,954.86
2015,02,06,08,08,954.86
2015,02,06,08,09,954.86
2015,02,06,08,10,954.86
2015,02,06,08,11,954.86
2015,02,06,08,12,955.23
2015,02,06,08,13,955.23
2015,02,06,08,14,955.23
2015,02,06,08,15,955.23
2015,02,06,08,16,955.23
2015,02,06,08,17,955.23
2015,02,06,08,18,955.23
2015,02,06,08,19,955.23
2015,02,06,08,20,955.23
2015,02,06,08,21,955.23
2015,02,06,08,22,955.23
2015,02,06,08,23,955.23
2015,02,06,08,24,955.23
2015,02,06,08,25,955.23
2015,02,06,08,26,955.23
2015,02,06,08,27,955.40
2015,02,06,08,28,955.40
2015,02,06,08,29,955.40
2015,02,06,08,30,955.40
2015,02,06,08,31,955.40
2015,02,06,08,32,955.40
2015,02,06,08,33,955.40
2015,02,06,08,34,955.40
2015,02,06,08,35,955.40
2015,02,06,08,36,955.40
2015,02,06,08,37,955.40
2015,02,06,08,38,955.40
2015,02,06,08,39,955.40
2015,02,06,08,40,955.40
2015,02,06,08,41,955.40
2015,02,06,08,42,955.81
2015,02,06,08,43,955.81
2015,02,06,08,44,955.81
2015,02,06,08,45,955.81
2015,02,06,08,46,955.81
2015,02,06,08,47,955.81
2015,02,06,08,48,955.81
2015,02,06,08,49,955.81
2015,02,06,08,50,955.81
2015,02,06,08,51,955.81
2015,02,06,08,52,955.81
2015,02,06,08,53,955.81
2015,02,06,08,54,955.81
2015,02,06,08,55,955.81
2015,02,06,08,56,955.81
2015,02,06,08,57,955.88
2015,02,06,08,58,955.88
2015,02,06,08,59,955.88
2015,02,06,09,00,955.88
2015,02,06,09,01,955.88
2015,02,06,09,02,955.88
2015,02,06,09,03,955.88
2015,02,06,09,04,955.88
2015,02,06,09,05,955.88
2015,02,06,09,06,955.88
2015,02,06,09,07,955.88
2015,02,06,09,08,955.88
2015,02,06,09,09,955.88
2015,02,06,09,10,955.88
2015,02,06,09,11,955.88
2015,02,06,09,12,956.45
2015,02,06,09,13,956.45
2015,02,06,09,14,956.45
2015,02,06,09,15,956.45
2015,02,06,09,16,956.45
2015,02,06,09,17,956.45
2015,02,06,09,18,956.45
2015,02,06,09,19,956.45
2015,02,06,09,20,956.45
2015,02,06,09,21,956.45
2015,02,06,09,22,956.45
2015,02,06,09,23,956.45
2015,02,06,09,24,956.45
2015,02,06,09,25,956.45
2015,02,06,09,26,956.45
2015,02,06,09,27,956.45
2015,02,06,09,28,956.45
2015,02,06,09,29,956.45
2015,02,06,09,30,956.45
2015,02,06,09,31,956.45
2015,02,06,09,32,956.45
2015,02,06,09,33,956.45
2015,02,06,09,34,956.45
2015,02,06,09,35,956.45
2015,02,06,09,36,956.45
2015,02,06,09,37,956.45
2015,02,06,09,38,956.45
2015,02,06,09,39,956.45
2015,02,06,09,40,956.45
2015,02,06,09,41,956.45
2015,02,06,09,42,956.96
2015,02,06,09,43,956.96
2015,02,06,09,44,956.96
2015,02,06,09,45,956.96
2015,02,06,09,46,956.96
2015,02,06,09,47,956.96
2015,02,06,09,48,956.96
2015,02,06,09,49,956.96
2015,02,06,09,50,956.96
2015,02,06,09,51,956.96
2015,02,06,09,52,956.96
2015,02,06,09,53,956.96
2015,02,06,09,54,956.96
2015,02,06,09,55,956.96
2015,02,06,09,56,956.96
2015,02,06,09,57,956.86
2015,02,06,09,58,956.86
2015,02,06,09,59,956.86
2015,02,06,10,00,956.86
2015,02,06,10,01,956.86
2015,02,06,10,02,956.86
2015,02,06,10,03,956.86
2015,02,06,10,04,956.86
2015,02,06,10,05,956.86
2015,02,06,10,06,956.86
2015,02,06,10,07,956.86
2015,02,06,10,08,956.86
2015,02,06,10,09,956.86
2015,02,06,10,10,956.86
2015,02,06,10,11,956.86
2015,02,06,10,12,956.69
2015,02,06,10,13,956.69
2015,02,06,10,14,956.69
2015,02,06,10,15,956.69
2015,02,06,10,16,956.69
2015,02,06,10,17,956.69
2015,02,06,10,18,956.69
2015,02,06,10,19,956.69
2015,02,06,10,20,956.69
2015,02,06,10,21,956.69
2015,02,06,10,22,956.69
2015,02,06,10,23,956.69
2015,02,06,10,24,956.69
2015,02,06,10,25,956.69
2015,02,06,10,26,956.69
2015,02,06,10,27,956.96
2015,02,06,10,28,956.96
2015,02,06,10,29,956.96
2015,02,06,10,30,956.96
2015,02,06,10,31,956.96
2015,02,06,10,32,956.96
2015,02,06,10,33,956.96
2015,02,06,10,34,956.96
2015,02,06,10,35,956.96
2015,02,06,10,36,956.96
2015,02,06,10,37,956.96
2015,02,06,10,38,956.96
2015,02,06,10,39,956.96
2015,02,06,10,40,956.96
2015,02,06,10,41,956.96
2015,02,06,10,42,957.09
2015,02,06,10,43,957.09
2015,02,06,10,44,957.09
2015,02,06,10,45,957.09
2015,02,06,10,46,957.09
2015,02,06,10,47,957.09
2015,02,06,10,48,957.09
2015,02,06,10,49,957.09
2015,02,06,10,50,957.09
2015,02,06,10,51,957.09
2015,02,06,10,52,957.09
2015,02,06,10,53,957.09
2015,02,06,10,54,957.09
2015,02,06,10,55,957.09
2015,02,06,10,56,957.09
2015,02,06,10,57,956.89
2015,02,06,10,58,956.89
2015,02,06,10,59,956.89
2015,02,06,11,00,956.89
2015,02,06,11,01,956.89
2015,02,06,11,02,956.89
2015,02,06,11,03,956.89
2015,02,06,11,04,956.89
2015,02,06,11,05,956.89
2015,02,06,11,06,956.89
2015,02,06,11,07,956.89
2015,02,06,11,08,956.89
2015,02,06,11,09,956.89
2015,02,06,11,10,956.89
2015,02,06,11,11,956.89
2015,02,06,11,12,956.96
2015,02,06,11,13,956.96
2015,02,06,11,14,956.96
2015,02,06,11,15,956.96
2015,02,06,11,16,956.96
2015,02,06,11,17,956.96
2015,02,06,11,18,956.96
2015,02,06,11,19,956.96
2015,02,06,11,20,956.96
2015,02,06,11,21,956.96
2015,02,06,11,22,956.96
2015,02,06,11,23,956.96
2015,02,06,11,24,956.96
2015,02,06,11,25,956.96
2015,02,06,11,26,956.96
2015,02,06,11,27,957.50
2015,02,06,11,28,957.50
2015,02,06,11,29,957.50
2015,02,06,11,30,957.50
2015,02,06,11,31,957.50
2015,02,06,11,32,957.50
2015,02,06,11,33,957.50
2015,02,06,11,34,957.50
2015,02,06,11,35,957.50
2015,02,06,11,36,957.50
2015,02,06,11,37,957.50
2015,02,06,11,38,957.50
2015,02,06,11,39,957.50
2015,02,06,11,40,957.50
2015,02,06,11,41,957.50
2015,02,06,11,42,957.50
2015,02,06,11,43,957.50
2015,02,06,11,44,957.50
2015,02,06,11,45,957.50
2015,02,06,11,46,957.50
2015,02,06,11,47,957.50
2015,02,06,11,48,957.50
2015,02,06,11,49,957.50
2015,02,06,11,50,957.50
2015,02,06,11,51,957.50
2015,02,06,11,52,957.50
2015,02,06,11,53,957.50
2015,02,06,11,54,957.50
2015,02,06,11,55,957.50
2015,02,06,11,56,957.50
2015,02,06,11,57,957.50
2015,02,06,11,58,957.50
2015,02,06,11,59,957.50
2015,02,06,12,00,957.50
2015,02,06,12,01,957.50
2015,02,06,12,02,957.50
2015,02,06,12,03,957.50
2015,02,06,12,04,957.50
2015,02,06,12,05,957.50
2015,02,06,12,06,957.50
2015,02,06,12,07,957.50
2015,02,06,12,08,957.50
2015,02,06,12,09,957.50
2015,02,06,12,10,957.50
2015,02,06,12,11,957.50
2015,02,06,12,12,957.74
2015,02,06,12,13,957.74
2015,02,06,12,14,957.74
2015,02,06,12,15,957.74
2015,02,06,12,16,957.74
2015,02,06,12,17,957.74
2015,02,06,12,18,957.74
2015,02,06,12,19,957.74
2015,02,06,12,20,957.74
2015,02,06,12,21,957.74
2015,02,06,12,22,957.74
2015,02,06,12,23,957.74
2015,02,06,12,24,957.74
2015,02,06,12,25,957.74
2015,02,06,12,26,957.74
2015,02,06,12,27,958.18
2015,02,06,12,28,958.18
2015,02,06,12,29,958.18
2015,02,06,12,30,958.18
2015,02,06,12,31,958.18
2015,02,06,12,32,958.18
2015,02,06,12,33,958.18
2015,02,06,12,34,958.18
2015,02,06,12,35,958.18
2015,02,06,12,36,958.18
2015,02,06,12,37,958.18
2015,02,06,12,38,958.18
2015,02,06,12,39,958.18
2015,02,06,12,40,958.18
2015,02,06,12,41,958.18
2015,02,06,12,42,957.81
2015,02,06,12,43,957.81
2015,02,06,12,44,957.81
2015,02,06,12,45,957.81
2015,02,06,12,46,957.81
2015,02,06,12,47,957.81
2015,02,06,12,48,957.81
2015,02,06,12,49,957.81
2015,02,06,12,50,957.81
2015,02,06,12,51,957.81
2015,02,06,12,52,957.81
2015,02,06,12,53,957.81
2015,02,06,12,54,957.81
2015,02,06,12,55,957.81
2015,02,06,12,56,957.81
2015,02,06,12,57,958.04
2015,02,06,12,58,958.04
2015,02,06,12,59,958.04
2015,02,06,13,00,958.04
2015,02,06,13,01,958.04
2015,02,06,13,02,958.04
2015,02,06,13,03,958.04
2015,02,06,13,04,958.04
2015,02,06,13,05,958.04
2015,02,06,13,06,958.04
2015,02,06,13,07,958.04
2015,02,06,13,08,958.04
2015,02,06,13,09,958.04
2015,02,06,13,10,958.04
2015,02,06,13,11,958.04
2015,02,06,13,12,958.04
2015,02,06,13,13,958.04
2015,02,06,13,14,958.04
2015,02,06,13,15,958.04
2015,02,06,13,16,958.04
2015,02,06,13,17,958.04
2015,02,06,13,18,958.04
2015,02,06,13,19,958.04
2015,02,06,13,20,958.04
2015,02,06,13,21,958.04
2015,02,06,13,22,958.04
2015,02,06,13,23,958.04
2015,02,06,13,24,958.04
2015,02,06,13,25,958.04
2015,02,06,13,26,958.04
2015,02,06,13,27,958.04
2015,02,06,13,28,958.04
2015,02,06,13,29,958.04
2015,02,06,13,30,958.04
2015,02,06,13,31,958.04
2015,02,06,13,32,958.04
2015,02,06,13,33,958.04
2015,02,06,13,34,958.04
2015,02,06,13,35,958.04
2015,02,06,13,36,958.04
2015,02,06,13,37,958.04
2015,02,06,13,38,958.04
2015,02,06,13,39,958.04
2015,02,06,13,40,958.04
2015,02,06,13,41,958.04
2015,02,06,13,42,958.48
2015,02,06,13,43,958.48
2015,02,06,13,44,958.48
2015,02,06,13,45,958.48
2015,02,06,13,46,958.48
2015,02,06,13,47,958.48
2015,02,06,13,48,958.48
2015,02,06,13,49,958.48
2015,02,06,13,50,958.48
2015,02,06,13,51,958.48
2015,02,06,13,52,958.48
2015,02,06,13,53,958.48
2015,02,06,13,54,958.48
2015,02,06,13,55,958.48
2015,02,06,13,56,958.48
2015,02,06,13,57,958.55
2015,02,06,13,58,958.55
2015,02,06,13,59,958.55
2015,02,06,14,00,958.55
2015,02,06,14,01,958.55
2015,02,06,14,02,958.55
2015,02,06,14,03,958.55
2015,02,06,14,04,958.55
2015,02,06,14,05,958.55
2015,02,06,14,06,958.55
2015,02,06,14,07,958.55
2015,02,06,14,08,958.55
2015,02,06,14,09,958.55
2015,02,06,14,10,958.55
2015,02,06,14,11,958.55
2015,02,06,14,12,958.86
2015,02,06,14,13,958.86
2015,02,06,14,14,958.86
2015,02,06,14,15,958.86
2015,02,06,14,16,958.86
2015,02,06,14,17,958.86
2015,02,06,14,18,958.86
2015,02,06,14,19,958.86
2015,02,06,14,20,958.86
2015,02,06,14,21,958.86
2015,02,06,14,22,958.86
2015,02,06,14,23,958.86
2015,02,06,14,24,958.86
2015,02,06,14,25,958.86
2015,02,06,14,26,958.86
2015,02,06,14,27,959.06
2015,02,06,14,28,959.06
2015,02,06,14,29,959.06
2015,02,06,14,30,959.06
2015,02,06,14,31,959.06
2015,02,06,14,32,959.06
2015,02,06,14,33,959.06
2015,02,06,14,34,959.06
2015,02,06,14,35,959.06
2015,02,06,14,36,959.06
2015,02,06,14,37,959.06
2015,02,06,14,38,959.06
2015,02,06,14,39,959.06
2015,02,06,14,40,959.06
2015,02,06,14,41,959.06
2015,02,06,14,42,959.09
2015,02,06,14,43,959.09
2015,02,06,14,44,959.09
2015,02,06,14,45,959.09
2015,02,06,14,46,959.09
2015,02,06,14,47,959.09
2015,02,06,14,48,959.09
2015,02,06,14,49,959.09
2015,02,06,14,50,959.09
2015,02,06,14,51,959.09
2015,02,06,14,52,959.09
2015,02,06,14,53,959.09
2015,02,06,14,54,959.09
2015,02,06,14,55,959.09
2015,02,06,14,56,959.09
2015,02,06,14,57,959.23
2015,02,06,14,58,959.23
2015,02,06,14,59,959.23
2015,02,06,15,00,959.23
2015,02,06,15,01,959.23
2015,02,06,15,02,959.23
2015,02,06,15,03,959.23
2015,02,06,15,04,959.23
2015,02,06,15,05,959.23
2015,02,06,15,06,959.23
2015,02,06,15,07,959.23
2015,02,06,15,08,959.23
2015,02,06,15,09,959.23
2015,02,06,15,10,959.23
2015,02,06,15,11,959.23
2015,02,06,15,12,959.57
2015,02,06,15,13,959.57
2015,02,06,15,14,959.57
2015,02,06,15,15,959.57
2015,02,06,15,16,959.57
2015,02,06,15,17,959.57
2015,02,06,15,18,959.57
2015,02,06,15,19,959.57
2015,02,06,15,20,959.57
2015,02,06,15,21,959.57
2015,02,06,15,22,959.57
2015,02,06,15,23,959.57
2015,02,06,15,24,959.57
2015,02,06,15,25,959.57
2015,02,06,15,26,959.57
2015,02,06,15,27,959.50
2015,02,06,15,28,959.50
2015,02,06,15,29,959.50
2015,02,06,15,30,959.50
2015,02,06,15,31,959.50
2015,02,06,15,32,959.50
2015,02,06,15,33,959.50
2015,02,06,15,34,959.50
2015,02,06,15,35,959.50
2015,02,06,15,36,959.50
2015,02,06,15,37,959.50
2015,02,06,15,38,959.50
2015,02,06,15,39,959.50
2015,02,06,15,40,959.50
2015,02,06,15,41,959.50
2015,02,06,15,42,959.60
2015,02,06,15,43,959.60
2015,02,06,15,44,959.60
2015,02,06,15,45,959.60
2015,02,06,15,46,959.60
2015,02,06,15,47,959.60
2015,02,06,15,48,959.60
2015,02,06,15,49,959.60
2015,02,06,15,50,959.60
2015,02,06,15,51,959.60
2015,02,06,15,52,959.60
2015,02,06,15,53,959.60
2015,02,06,15,54,959.60
2015,02,06,15,55,959.60
2015,02,06,15,56,959.60
2015,02,06,15,57,959.67
2015,02,06,15,58,959.67
2015,02,06,15,59,959.67
2015,02,06,16,00,959.67
2015,02,06,16,01,959.67
2015,02,06,16,02,959.67
2015,02,06,16,03,959.67
2015,02,06,16,04,959.67
2015,02,06,16,05,959.67
2015,02,06,16,06,959.67
2015,02,06,16,07,959.67
2015,02,06,16,08,959.67
2015,02,06,16,09,959.67
2015,02,06,16,10,959.67
2015,02,06,16,11,959.67
2015,02,06,16,12,959.87
2015,02,06,16,13,959.87
2015,02,06,16,14,959.87
2015,02,06,16,15,959.87
2015,02,06,16,16,959.87
2015,02,06,16,17,959.87
2015,02,06,16,18,959.87
2015,02,06,16,19,959.87
2015,02,06,16,20,959.87
2015,02,06,16,21,959.87
2015,02,06,16,22,959.87
2015,02,06,16,23,959.87
2015,02,06,16,24,959.87
2015,02,06,16,25,959.87
2015,02,06,16,26,959.87
2015,02,06,16,27,959.57
2015,02,06,16,28,959.57
2015,02,06,16,29,959.57
2015,02,06,16,30,959.57
2015,02,06,16,31,959.57
2015,02,06,16,32,959.57
2015,02,06,16,33,959.57
2015,02,06,16,34,959.57
2015,02,06,16,35,959.57
2015,02,06,16,36,959.57